�������l�o���
Date,Time,MP-1(��Sv/h),MP-2(��Sv/h),MP-3(��Sv/h),MP-4(��Sv/h),MP-5(��Sv/h),MP-6(��Sv/h),MP-7(��Sv/h),MP-8(��Sv/h),����,����(m/s),���J
2017/04/17,00:00,1.047,1.682,1.141,2.023,1.395,0.555,1.011,0.933,���k��,4.3,��
2017/04/17,00:10,1.047,1.682,1.143,2.022,1.394,0.554,1.014,0.934,��,3.3,��
2017/04/17,00:20,1.045,1.679,1.145,2.020,1.391,0.552,1.009,0.934,�k��,1.5,��
2017/04/17,00:30,1.048,1.683,1.145,2.019,1.396,0.554,1.010,0.933,���쐼,0.9,��
2017/04/17,00:40,1.048,1.685,1.144,2.023,1.394,0.554,1.010,0.936,���k��,1.4,��
2017/04/17,00:50,1.047,1.682,1.144,2.022,1.395,0.554,1.011,0.933,���k��,4.0,��
2017/04/17,01:00,1.046,1.685,1.145,2.022,1.394,0.553,1.007,0.934,�k��,3.9,��
2017/04/17,01:10,1.045,1.683,1.145,2.021,1.394,0.553,1.010,0.933,�k��,2.5,��
2017/04/17,01:20,1.046,1.683,1.143,2.023,1.392,0.556,1.011,0.934,��,2.0,��
2017/04/17,01:30,1.044,1.680,1.142,2.021,1.391,0.554,1.007,0.932,��쐼,0.9,��
2017/04/17,01:40,1.045,1.683,1.144,2.020,1.394,0.552,1.009,0.933,�쐼,1.2,��
2017/04/17,01:50,1.045,1.682,1.144,2.020,1.393,0.554,1.011,0.934,�쐼,1.4,��
2017/04/17,02:00,1.044,1.685,1.144,2.020,1.394,0.554,1.009,0.933,��,5.2,��
2017/04/17,02:10,1.047,1.683,1.144,2.017,1.389,0.555,1.008,0.934,���쐼,5.4,��
2017/04/17,02:20,1.046,1.683,1.143,2.018,1.392,0.554,1.009,0.933,���쐼,4.9,��
2017/04/17,02:30,1.044,1.683,1.143,2.022,1.391,0.554,1.008,0.933,��,5.7,��
2017/04/17,02:40,1.045,1.681,1.143,2.021,1.394,0.553,1.009,0.935,��,4.7,��
2017/04/17,02:50,1.043,1.680,1.142,2.018,1.392,0.554,1.009,0.932,��,4.9,��
2017/04/17,03:00,1.045,1.683,1.140,2.020,1.391,0.555,1.009,0.932,��,3.4,��
2017/04/17,03:10,1.046,1.680,1.142,2.019,1.392,0.553,1.009,0.933,��,4.1,��
2017/04/17,03:20,1.043,1.681,1.142,2.020,1.391,0.553,1.009,0.932,���k��,3.2,��
2017/04/17,03:30,1.046,1.681,1.142,2.015,1.392,0.554,1.010,0.934,��,2.3,��
2017/04/17,03:40,1.044,1.679,1.142,2.019,1.392,0.553,1.011,0.933,��,2.3,��
2017/04/17,03:50,1.046,1.679,1.141,2.017,1.392,0.555,1.009,0.933,��,2.6,��
2017/04/17,04:00,1.043,1.681,1.141,2.018,1.389,0.554,1.010,0.933,��,1.9,��
2017/04/17,04:10,1.045,1.680,1.142,2.015,1.390,0.553,1.010,0.933,��,3.1,��
2017/04/17,04:20,1.044,1.680,1.141,2.017,1.392,0.553,1.010,0.933,���k��,2.6,��
2017/04/17,04:30,1.045,1.682,1.142,2.020,1.390,0.552,1.010,0.931,���k��,4.7,��
2017/04/17,04:40,1.043,1.680,1.140,2.018,1.393,0.551,1.009,0.932,���k��,7.0,��
2017/04/17,04:50,1.042,1.678,1.141,2.019,1.392,0.552,1.009,0.932,���k��,5.3,��
2017/04/17,05:00,1.041,1.683,1.139,2.021,1.391,0.552,1.010,0.929,�k��,5.4,��
2017/04/17,05:10,1.043,1.681,1.143,2.019,1.391,0.553,1.010,0.932,�k��,6.5,��
2017/04/17,05:20,1.045,1.683,1.143,2.020,1.391,0.554,1.010,0.931,�k��,7.1,��
2017/04/17,05:30,1.045,1.683,1.142,2.020,1.389,0.553,1.010,0.933,�k��,7.5,��
2017/04/17,05:40,1.043,1.682,1.142,2.020,1.392,0.554,1.010,0.934,�k��,4.7,��
2017/04/17,05:50,1.040,1.681,1.141,2.017,1.392,0.553,1.009,0.934,�k�k��,2.8,��
2017/04/17,06:00,1.042,1.681,1.142,2.018,1.388,0.552,1.008,0.933,�k,4.4,��
2017/04/17,06:10,1.043,1.680,1.140,2.020,1.391,0.554,1.005,0.931,�k�k��,3.9,��
2017/04/17,06:20,1.043,1.684,1.140,2.014,1.389,0.552,1.008,0.934,�k,3.7,��
2017/04/17,06:30,1.042,1.679,1.139,2.016,1.391,0.552,1.008,0.934,�k�k��,1.4,��
2017/04/17,06:40,1.041,1.682,1.140,2.020,1.391,0.552,1.008,0.932,�k�k��,2.2,��
2017/04/17,06:50,1.044,1.681,1.139,2.018,1.388,0.550,1.007,0.933,�k�k��,3.4,��
2017/04/17,07:00,1.043,1.680,1.143,2.018,1.390,0.550,1.009,0.931,�k�k��,3.6,��
2017/04/17,07:10,1.042,1.681,1.140,2.019,1.389,0.551,1.009,0.930,�k�k��,3.9,��
2017/04/17,07:20,1.042,1.681,1.140,2.021,1.391,0.550,1.008,0.933,�k�k��,5.2,��
2017/04/17,07:30,1.042,1.681,1.141,2.016,1.391,0.551,1.010,0.932,�k�k��,6.1,��
2017/04/17,07:40,1.041,1.679,1.139,2.018,1.389,0.551,1.007,0.934,�k�k��,9.0,��
2017/04/17,07:50,1.040,1.681,1.140,2.021,1.392,0.553,1.006,0.933,�k��,8.7,��
2017/04/17,08:00,1.041,1.681,1.139,2.015,1.389,0.550,1.007,0.932,�k��,8.8,��
2017/04/17,08:10,1.041,1.680,1.140,2.018,1.389,0.550,1.006,0.934,�k��,9.9,��
2017/04/17,08:20,1.041,1.681,1.138,2.021,1.391,0.548,1.004,0.931,�k�k��,9.4,��
2017/04/17,08:30,1.041,1.678,1.139,2.019,1.387,0.547,1.005,0.931,�k�k��,8.2,��
2017/04/17,08:40,1.038,1.681,1.140,2.015,1.390,0.548,1.005,0.932,�k�k��,5.2,��
2017/04/17,08:50,1.038,1.681,1.136,2.019,1.388,0.547,1.004,0.930,�k��,5.0,��
2017/04/17,09:00,1.041,1.680,1.137,2.018,1.386,0.548,1.005,0.932,�k��,4.3,��
2017/04/17,09:10,1.039,1.680,1.139,2.016,1.387,0.547,1.004,0.932,��,1.7,��
2017/04/17,09:20,1.038,1.682,1.138,2.017,1.387,0.551,1.004,0.929,��쓌,1.4,��
2017/04/17,09:30,1.038,1.679,1.140,2.015,1.388,0.547,1.003,0.930,���쓌,1.7,��
2017/04/17,09:40,1.041,1.682,1.138,2.019,1.385,0.547,1.003,0.932,�쓌,1.7,��
2017/04/17,09:50,1.036,1.681,1.138,2.019,1.386,0.548,1.002,0.930,��쓌,2.6,��
2017/04/17,10:00,1.041,1.679,1.140,2.019,1.388,0.546,1.004,0.928,��쓌,3.0,��
2017/04/17,10:10,1.041,1.683,1.139,2.017,1.386,0.547,1.004,0.929,��쓌,2.6,��
2017/04/17,10:20,1.040,1.681,1.140,2.019,1.387,0.548,1.003,0.931,��,2.8,��
2017/04/17,10:30,1.038,1.680,1.140,2.018,1.388,0.547,1.003,0.931,��,3.2,��
2017/04/17,10:40,1.036,1.677,1.140,2.024,1.387,0.548,1.004,0.931,��,2.8,��
2017/04/17,10:50,1.035,1.677,1.142,2.019,1.387,0.546,1.002,0.930,��,2.5,��
2017/04/17,11:00,1.036,1.678,1.139,2.022,1.384,0.544,1.003,0.928,��쓌,2.0,��
2017/04/17,11:10,1.034,1.677,1.141,2.019,1.389,0.545,1.003,0.929,��,1.1,��
2017/04/17,11:20,1.028,1.676,1.139,2.019,1.387,0.548,1.003,0.927,�쓌,0.9,��
2017/04/17,11:30,1.036,1.677,1.141,2.020,1.386,0.547,1.004,0.928,��,0.9,��
2017/04/17,11:40,1.036,1.674,1.140,2.022,1.388,0.547,1.005,0.930,���쓌,1.4,��
2017/04/17,11:50,1.038,1.675,1.139,2.020,1.391,0.546,1.005,0.928,���쓌,1.4,��
2017/04/17,12:00,1.037,1.679,1.138,2.023,1.392,0.546,1.005,0.927,��쓌,1.7,��
2017/04/17,12:10,1.038,1.681,1.141,2.020,1.390,0.547,1.005,0.927,�쓌,3.0,��
2017/04/17,12:20,1.039,1.681,1.137,2.022,1.391,0.548,1.004,0.929,�쓌,2.0,��
2017/04/17,12:30,1.035,1.678,1.139,2.022,1.390,0.547,1.005,0.927,��,1.5,��
2017/04/17,12:40,1.039,1.678,1.138,2.023,1.392,0.549,1.005,0.928,���쓌,2.6,��
2017/04/17,12:50,1.037,1.681,1.138,2.022,1.390,0.547,1.004,0.928,��쓌,2.6,��
2017/04/17,13:00,1.035,1.682,1.141,2.022,1.394,0.547,1.005,0.927,��쓌,3.9,��
2017/04/17,13:10,1.038,1.683,1.137,2.023,1.391,0.547,1.007,0.929,��쓌,2.8,��
2017/04/17,13:20,1.036,1.679,1.139,2.022,1.391,0.546,1.003,0.928,��쓌,2.9,�L
2017/04/17,13:30,1.038,1.682,1.136,2.024,1.389,0.546,1.005,0.929,��쓌,2.5,��
2017/04/17,13:40,1.038,1.680,1.136,2.022,1.391,0.547,1.005,0.928,���쓌,3.1,��
2017/04/17,13:50,1.038,1.683,1.137,2.023,1.393,0.549,1.004,0.928,��쓌,3.2,��
2017/04/17,14:00,1.038,1.684,1.139,2.024,1.392,0.549,1.006,0.929,��쓌,3.2,��
2017/04/17,14:10,1.039,1.682,1.138,2.025,1.393,0.547,1.006,0.928,�쓌,2.8,��
2017/04/17,14:20,1.039,1.681,1.139,2.025,1.394,0.548,1.006,0.929,�쓌,2.8,��
2017/04/17,14:30,1.038,1.680,1.140,2.024,1.395,0.547,1.004,0.929,�쓌,2.9,��
2017/04/17,14:40,1.041,1.680,1.141,2.025,1.392,0.547,1.007,0.928,�쓌,2.5,��
2017/04/17,14:50,1.038,1.681,1.140,2.024,1.393,0.548,1.005,0.927,���쓌,2.2,��
2017/04/17,15:00,1.039,1.684,1.138,2.022,1.394,0.549,1.005,0.930,�쓌,2.2,��
2017/04/17,15:10,1.038,1.682,1.140,2.023,1.393,0.550,1.005,0.929,�쓌,2.6,��
2017/04/17,15:20,1.038,1.684,1.139,2.022,1.390,0.548,1.006,0.928,���쓌,1.9,��
2017/04/17,15:30,1.039,1.685,1.141,2.023,1.395,0.551,1.004,0.927,�쓌,2.5,��
2017/04/17,15:40,1.037,1.683,1.139,2.022,1.391,0.550,1.006,0.928,�쓌,3.2,��
2017/04/17,15:50,1.038,1.686,1.140,2.026,1.389,0.549,1.005,0.928,�쓌,2.6,��
2017/04/17,16:00,1.039,1.682,1.142,2.026,1.390,0.550,1.007,0.928,�쓌,2.6,��
2017/04/17,16:10,1.042,1.685,1.143,2.022,1.391,0.550,1.004,0.929,���쓌,1.7,��
2017/04/17,16:20,1.040,1.684,1.143,2.023,1.392,0.551,1.005,0.929,���쓌,2.6,��
2017/04/17,16:30,1.040,1.689,1.141,2.026,1.394,0.551,1.005,0.929,���쓌,2.5,��
2017/04/17,16:40,1.039,1.690,1.143,2.022,1.395,0.551,1.007,0.929,���쓌,1.9,��
2017/04/17,16:50,1.042,1.687,1.142,2.023,1.393,0.551,1.006,0.931,���쓌,2.6,��
2017/04/17,17:00,1.042,1.688,1.142,2.024,1.393,0.551,1.005,0.930,���쓌,2.5,��
2017/04/17,17:10,1.044,1.686,1.143,2.026,1.391,0.550,1.005,0.931,�쓌,3.3,��
2017/04/17,17:20,1.041,1.694,1.140,2.023,1.394,0.551,1.006,0.932,�쓌,3.4,��
2017/04/17,17:30,1.040,1.694,1.141,2.025,1.394,0.550,1.007,0.933,�쓌,2.3,��
2017/04/17,17:40,1.041,1.685,1.141,2.022,1.396,0.551,1.008,0.934,�쓌,2.5,��
2017/04/17,17:50,1.043,1.687,1.140,2.021,1.395,0.551,1.007,0.931,�쓌,2.6,��
2017/04/17,18:00,1.041,1.688,1.140,2.023,1.397,0.550,1.006,0.930,�쓌,1.9,��
2017/04/17,18:10,1.041,1.685,1.141,2.020,1.395,0.553,1.006,0.932,�쓌,2.6,��
2017/04/17,18:20,1.040,1.684,1.140,2.018,1.394,0.551,1.006,0.933,�쓌,2.9,��
2017/04/17,18:30,1.040,1.686,1.141,2.022,1.395,0.551,1.007,0.934,�쓌,3.3,��
2017/04/17,18:40,1.042,1.686,1.142,2.023,1.396,0.550,1.008,0.931,�쓌,4.4,��
2017/04/17,18:50,1.042,1.686,1.141,2.022,1.396,0.550,1.007,0.931,�쓌,3.9,��
2017/04/17,19:00,1.041,1.688,1.142,2.023,1.397,0.553,1.008,0.932,�쓌,3.3,��
2017/04/17,19:10,1.041,1.687,1.142,2.022,1.394,0.551,1.007,0.932,���쓌,4.1,��
2017/04/17,19:20,1.042,1.685,1.141,2.022,1.397,0.551,1.007,0.933,���쓌,3.6,�L
2017/04/17,19:30,1.039,1.685,1.140,2.023,1.395,0.551,1.008,0.932,���쓌,3.9,�L
2017/04/17,19:40,1.043,1.685,1.142,2.025,1.395,0.551,1.007,0.931,���쓌,4.3,�L
2017/04/17,19:50,1.042,1.688,1.143,2.021,1.393,0.550,1.008,0.932,���쓌,2.8,�L
2017/04/17,20:00,1.040,1.683,1.142,2.022,1.397,0.551,1.007,0.934,���쓌,1.4,�L
2017/04/17,20:10,1.042,1.683,1.140,2.024,1.398,0.549,1.007,0.933,���k��,2.0,�L
2017/04/17,20:20,1.043,1.682,1.142,2.021,1.396,0.552,1.006,0.931,��,2.9,�L
2017/04/17,20:30,1.039,1.684,1.141,2.023,1.393,0.552,1.008,0.932,���쓌,2.3,�L
2017/04/17,20:40,1.040,1.683,1.141,2.022,1.393,0.551,1.007,0.931,�쓌,2.8,�L
2017/04/17,20:50,1.041,1.683,1.140,2.022,1.393,0.551,1.006,0.931,��,3.2,�L
2017/04/17,21:00,1.041,1.679,1.140,2.021,1.390,0.551,1.007,0.931,���쓌,4.4,�L
2017/04/17,21:10,1.039,1.677,1.143,2.020,1.391,0.553,1.005,0.932,���쓌,4.1,�L
2017/04/17,21:20,1.039,1.677,1.137,2.017,1.386,0.551,1.006,0.930,���쓌,1.7,�L
2017/04/17,21:30,1.039,1.671,1.137,2.013,1.378,0.552,1.003,0.930,��,0.6,�L
2017/04/17,21:40,1.032,1.659,1.129,2.007,1.374,0.551,1.000,0.929,�쓌,2.8,�L
2017/04/17,21:50,1.026,1.643,1.123,1.993,1.363,0.550,0.996,0.925,���쓌,3.6,�L
2017/04/17,22:00,1.016,1.627,1.113,1.977,1.346,0.548,0.992,0.922,���쓌,8.0,�L
2017/04/17,22:10,1.010,1.616,1.104,1.961,1.332,0.547,0.989,0.918,���쓌,9.2,�L
2017/04/17,22:20,1.007,1.603,1.102,1.951,1.324,0.546,0.987,0.916,�쓌,11.1,�L
2017/04/17,22:30,1.001,1.601,1.100,1.940,1.321,0.544,0.987,0.915,�쓌,12.5,�L
2017/04/17,22:40,0.994,1.590,1.093,1.931,1.316,0.542,0.984,0.911,�쓌,11.9,�L
2017/04/17,22:50,0.990,1.581,1.088,1.920,1.305,0.541,0.979,0.910,�쓌,7.4,�L
2017/04/17,23:00,0.987,1.573,1.084,1.906,1.298,0.539,0.978,0.908,��쓌,7.3,�L
2017/04/17,23:10,0.982,1.568,1.082,1.901,1.290,0.539,0.976,0.905,��쓌,6.5,�L
2017/04/17,23:20,0.978,1.561,1.077,1.894,1.281,0.538,0.972,0.903,��쓌,8.6,�L
2017/04/17,23:30,0.970,1.544,1.067,1.876,1.264,0.535,0.968,0.900,��쓌,8.1,�L
2017/04/17,23:40,0.980,1.552,1.071,1.884,1.271,0.538,0.971,0.902,��쓌,8.4,�L
2017/04/17,23:50,0.983,1.557,1.075,1.887,1.273,0.540,0.971,0.903,��쓌,11.4,�L
